| time (UTC) | temp C | wind direction | speed KPH | gust KPH | rain 1hr cm | rain 24hr cm | rain mn cm | humidity % | barometer mb |
| 20260503235516 | 15 | 297 | 0.0 | 0.0 | 0.00 | 0.00 | 0.00 | 45 | 1015.4 |
| 20260503235016 | 15 | 297 | 0.0 | 0.0 | 0.00 | 0.00 | 0.00 | 44 | 1015.4 |
| 20260503234516 | 15 | 297 | 0.0 | 0.0 | 0.00 | 0.00 | 0.00 | 43 | 1015.4 |
| 20260503234016 | 15 | 297 | 0.0 | 0.0 | 0.00 | 0.00 | 0.00 | 42 | 1015.4 |
| 20260503233516 | 16 | 297 | 0.0 | 3.2 | 0.00 | 0.00 | 0.00 | 43 | 1015.4 |
| 20260503233016 | 16 | 297 | 0.0 | 4.8 | 0.00 | 0.00 | 0.00 | 40 | 1015.4 |
| 20260503232516 | 16 | 297 | 3.2 | 8.0 | 0.00 | 0.00 | 0.00 | 39 | 1015.4 |
| 20260503232016 | 16 | 297 | 1.6 | 11.3 | 0.00 | 0.00 | 0.00 | 39 | 1015.4 |
| 20260503231516 | 16 | 300 | 6.4 | 11.3 | 0.00 | 0.00 | 0.00 | 38 | 1015.4 |
| 20260503231016 | 16 | 291 | 0.0 | 11.3 | 0.00 | 0.00 | 0.00 | 39 | 1015.3 |
| 20260503230516 | 16 | 262 | 0.0 | 9.7 | 0.00 | 0.00 | 0.00 | 39 | 1015.3 |
| 20260503230016 | 16 | 261 | 0.0 | 14.5 | 0.00 | 0.00 | 0.00 | 39 | 1015.3 |
| 20260503225516 | 16 | 261 | 9.7 | 14.5 | 0.00 | 0.00 | 0.00 | 38 | 1015.3 |
| 20260503224516 | 17 | 294 | 6.4 | 14.5 | 0.00 | 0.00 | 0.00 | 38 | 1015.3 |
| 20260503224016 | 17 | 239 | 1.6 | 17.7 | 0.00 | 0.00 | 0.00 | 39 | 1015.4 |
| 20260503223516 | 17 | 315 | 11.3 | 17.7 | 0.00 | 0.00 | 0.00 | 38 | 1015.4 |
| 20260503223016 | 17 | 348 | 3.2 | 17.7 | 0.00 | 0.00 | 0.00 | 37 | 1015.4 |
| 20260503222515 | 17 | 319 | 4.8 | 12.9 | 0.00 | 0.00 | 0.00 | 37 | 1015.4 |
| 20260503221515 | 17 | 238 | 4.8 | 17.7 | 0.00 | 0.00 | 0.00 | 38 | 1015.4 |
| 20260503221015 | 16 | 259 | 4.8 | 20.9 | 0.00 | 0.00 | 0.00 | 37 | 1015.3 |
| 20260503220046 | 16 | 224 | 9.7 | 20.9 | 0.00 | 0.00 | 0.00 | 38 | 1015.3 |
| 20260503215515 | 16 | 208 | 8.0 | 16.1 | 0.00 | 0.00 | 0.00 | 38 | 1015.3 |
| 20260503215015 | 16 | 286 | 11.3 | 20.9 | 0.00 | 0.00 | 0.00 | 38 | 1015.3 |
| 20260503214515 | 17 | 265 | 16.1 | 20.9 | 0.00 | 0.00 | 0.00 | 37 | 1015.3 |
| 20260503214015 | 17 | 274 | 3.2 | 19.3 | 0.00 | 0.00 | 0.00 | 38 | 1015.3 |
| 20260503213515 | 16 | 259 | 6.4 | 24.1 | 0.00 | 0.00 | 0.00 | 39 | 1015.3 |
| 20260503213015 | 16 | 238 | 16.1 | 24.1 | 0.00 | 0.00 | 0.00 | 39 | 1015.3 |
| 20260503212515 | 16 | 239 | 4.8 | 22.5 | 0.00 | 0.00 | 0.00 | 38 | 1015.3 |
| 20260503212015 | 17 | 193 | 9.7 | 22.5 | 0.00 | 0.00 | 0.00 | 37 | 1015.3 |
| 20260503211515 | 17 | 241 | 4.8 | 16.1 | 0.00 | 0.00 | 0.00 | 38 | 1015.3 |
| 20260503211016 | 17 | 348 | 1.6 | 19.3 | 0.00 | 0.00 | 0.00 | 38 | 1015.2 |
| 20260503210515 | 16 | 268 | 8.0 | 19.3 | 0.00 | 0.00 | 0.00 | 39 | 1015.2 |
| 20260503210015 | 16 | 300 | 9.7 | 16.1 | 0.00 | 0.00 | 0.00 | 37 | 1015.2 |
| 20260503205515 | 16 | 205 | 0.0 | 16.1 | 0.00 | 0.00 | 0.00 | 38 | 1015.2 |
| 20260503204045 | 16 | 271 | 6.4 | 17.7 | 0.00 | 0.00 | 0.00 | 38 | 1015.1 |
| 20260503203545 | 16 | 345 | 6.4 | 17.7 | 0.00 | 0.00 | 0.00 | 38 | 1015.1 |
| 20260503203045 | 16 | 283 | 1.6 | 11.3 | 0.00 | 0.00 | 0.00 | 40 | 1015.1 |
| 20260503202515 | 16 | 305 | 9.7 | 22.5 | 0.00 | 0.00 | 0.00 | 39 | 1015.3 |
| 20260503202044 | 16 | 238 | 0.0 | 22.5 | 0.00 | 0.00 | 0.00 | 37 | 1015.3 |
| 20260503201515 | 16 | 268 | 8.0 | 17.7 | 0.00 | 0.00 | 0.00 | 38 | 1015.3 |
| 20260503201015 | 16 | 297 | 6.4 | 16.1 | 0.00 | 0.00 | 0.00 | 39 | 1015.4 |
| 20260503200515 | 16 | 274 | 1.6 | 12.9 | 0.00 | 0.00 | 0.00 | 39 | 1015.4 |
| 20260503200014 | 16 | 345 | 3.2 | 20.9 | 0.00 | 0.00 | 0.00 | 41 | 1015.4 |
| 20260503195015 | 16 | 323 | 4.8 | 16.1 | 0.00 | 0.00 | 0.00 | 39 | 1015.7 |
| 20260503194514 | 16 | 23 | 0.0 | 16.1 | 0.00 | 0.00 | 0.00 | 43 | 1015.7 |
| 20260503194015 | 16 | 258 | 11.3 | 16.1 | 0.00 | 0.00 | 0.00 | 41 | 1015.9 |
| 20260503193014 | 15 | 307 | 0.0 | 16.1 | 0.00 | 0.00 | 0.00 | 41 | 1015.9 |
| 20260503192515 | 15 | 0 | 9.7 | 20.9 | 0.00 | 0.00 | 0.00 | 42 | 1015.9 |
| 20260503192014 | 15 | 298 | 6.4 | 20.9 | 0.00 | 0.00 | 0.00 | 41 | 1015.9 |
| 20260503191514 | 15 | 271 | 8.0 | 24.1 | 0.00 | 0.00 | 0.00 | 41 | 1015.9 |
| 20260503190514 | 15 | 341 | 16.1 | 25.7 | 0.00 | 0.00 | 0.00 | 41 | 1016.0 |
| 20260503190044 | 15 | 16 | 6.4 | 17.7 | 0.00 | 0.00 | 0.00 | 43 | 1016.0 |
| 20260503185514 | 15 | 14 | 0.0 | 14.5 | 0.00 | 0.00 | 0.00 | 43 | 1016.3 |
| 20260503184514 | 15 | 302 | 8.0 | 20.9 | 0.00 | 0.00 | 0.00 | 44 | 1016.3 |
| 20260503184044 | 15 | 341 | 6.4 | 20.9 | 0.00 | 0.00 | 0.00 | 44 | 1016.4 |
| 20260503183014 | 15 | 354 | 14.5 | 25.7 | 0.00 | 0.00 | 0.00 | 41 | 1016.4 |
| 20260503182514 | 15 | 356 | 16.1 | 20.9 | 0.00 | 0.00 | 0.00 | 43 | 1016.4 |
| 20260503182044 | 15 | 342 | 9.7 | 24.1 | 0.00 | 0.00 | 0.00 | 44 | 1016.4 |
| 20260503181514 | 14 | 358 | 16.1 | 27.4 | 0.00 | 0.00 | 0.00 | 42 | 1016.4 |
| 20260503181014 | 15 | 352 | 6.4 | 27.4 | 0.00 | 0.00 | 0.00 | 41 | 1016.4 |
| 20260503180514 | 14 | 291 | 19.3 | 20.9 | 0.00 | 0.00 | 0.00 | 44 | 1016.4 |
| 20260503180014 | 15 | 271 | 12.9 | 19.3 | 0.00 | 0.00 | 0.00 | 43 | 1016.4 |
| 20260503175514 | 14 | 338 | 4.8 | 19.3 | 0.00 | 0.00 | 0.00 | 44 | 1016.4 |
| 20260503175044 | 14 | 356 | 16.1 | 19.3 | 0.00 | 0.00 | 0.00 | 45 | 1016.4 |
| 20260503174544 | 14 | 340 | 1.6 | 20.9 | 0.00 | 0.00 | 0.00 | 44 | 1016.4 |
| 20260503174014 | 13 | 284 | 8.0 | 29.0 | 0.00 | 0.00 | 0.00 | 46 | 1016.7 |
| 20260503173514 | 13 | 288 | 8.0 | 29.0 | 0.00 | 0.00 | 0.00 | 45 | 1016.7 |
| 20260503173014 | 13 | 5 | 9.7 | 24.1 | 0.00 | 0.00 | 0.00 | 46 | 1016.7 |
| 20260503172514 | 13 | 0 | 14.5 | 24.1 | 0.00 | 0.00 | 0.00 | 44 | 1016.9 |
| 20260503172014 | 13 | 25 | 12.9 | 25.7 | 0.00 | 0.00 | 0.00 | 43 | 1016.9 |
| 20260503171514 | 13 | 347 | 20.9 | 25.7 | 0.00 | 0.00 | 0.00 | 43 | 1016.9 |
| 20260503171013 | 13 | 1 | 9.7 | 24.1 | 0.00 | 0.00 | 0.00 | 46 | 1016.9 |
| 20260503170513 | 13 | 331 | 9.7 | 24.1 | 0.00 | 0.00 | 0.00 | 45 | 1016.9 |
| 20260503150513 | 12 | 285 | 8.0 | 30.6 | 0.00 | 0.03 | 0.00 | 46 | 1017.4 |
| 20260503131012 | 11 | 1 | 8.0 | 27.4 | 0.00 | 0.03 | 0.00 | 56 | 1016.9 |
| 20260503130512 | 11 | 337 | 9.7 | 27.4 | 0.00 | 0.03 | 0.00 | 54 | 1016.9 |
| 20260503110541 | 10 | 261 | 6.4 | 24.1 | 0.00 | 0.03 | 0.00 | 62 | 1015.7 |
| 20260503081040 | 11 | 328 | 4.8 | 11.3 | 0.00 | 0.03 | 0.00 | 68 | 1012.9 |
| 20260503080540 | 11 | 326 | 4.8 | 14.5 | 0.00 | 0.03 | 0.00 | 68 | 1012.9 |
| 20260503072540 | 11 | 313 | 6.4 | 16.1 | 0.00 | 0.03 | 0.00 | 68 | 1012.6 |
| 20260503072039 | 11 | 340 | 4.8 | 14.5 | 0.00 | 0.03 | 0.00 | 68 | 1012.6 |
| 20260503071539 | 11 | 338 | 6.4 | 11.3 | 0.00 | 0.03 | 0.00 | 69 | 1012.6 |
| 20260503071040 | 11 | 331 | 4.8 | 17.7 | 0.00 | 0.03 | 0.00 | 69 | 1012.4 |
| 20260503070539 | 11 | 330 | 4.8 | 17.7 | 0.00 | 0.03 | 0.00 | 68 | 1012.4 |
| 20260503055038 | 9 | 23 | 0.0 | 0.0 | 0.00 | 0.03 | 0.00 | 79 | 1012.1 |
| 20260503054539 | 9 | 23 | 0.0 | 0.0 | 0.00 | 0.03 | 0.00 | 80 | 1012.1 |
| 20260503054039 | 10 | 23 | 0.0 | 0.0 | 0.00 | 0.03 | 0.00 | 80 | 1011.9 |
| 20260503053539 | 10 | 23 | 0.0 | 0.0 | 0.00 | 0.03 | 0.00 | 80 | 1011.9 |
| 20260503053039 | 10 | 23 | 0.0 | 0.0 | 0.00 | 0.03 | 0.00 | 81 | 1011.9 |
| 20260503052538 | 9 | 23 | 0.0 | 0.0 | 0.00 | 0.03 | 0.00 | 80 | 1012.2 |
| 20260503052038 | 9 | 23 | 0.0 | 0.0 | 0.00 | 0.03 | 0.00 | 80 | 1012.2 |
| 20260503051539 | 9 | 23 | 0.0 | 0.0 | 0.00 | 0.03 | 0.00 | 81 | 1012.2 |
| 20260503051038 | 9 | 23 | 0.0 | 0.0 | 0.00 | 0.03 | 0.00 | 80 | 1012.2 |
| 20260503050538 | 10 | 23 | 0.0 | 0.0 | 0.00 | 0.03 | 0.00 | 80 | 1012.2 |
| 20260503050039 | 10 | 23 | 0.0 | 0.0 | 0.00 | 0.03 | 0.00 | 79 | 1012.2 |
| 20260503045538 | 10 | 23 | 0.0 | 0.0 | 0.00 | 0.03 | 0.00 | 78 | 1012.2 |
| 20260503045038 | 10 | 23 | 0.0 | 0.0 | 0.00 | 0.03 | 0.00 | 79 | 1012.2 |
| 20260503044538 | 10 | 23 | 0.0 | 0.0 | 0.00 | 0.03 | 0.00 | 78 | 1012.2 |
| 20260503043039 | 10 | 23 | 0.0 | 0.0 | 0.00 | 0.03 | 0.00 | 77 | 1012.2 |
| 20260503042538 | 10 | 23 | 0.0 | 0.0 | 0.00 | 0.03 | 0.00 | 76 | 1012.2 |
| 20260503042038 | 10 | 23 | 0.0 | 0.0 | 0.00 | 0.03 | 0.00 | 76 | 1012.2 |
| 20260503041538 | 10 | 23 | 0.0 | 0.0 | 0.00 | 0.03 | 0.00 | 75 | 1012.2 |
| 20260503041038 | 11 | 23 | 0.0 | 0.0 | 0.00 | 0.03 | 0.00 | 75 | 1012.3 |
| 20260503040538 | 11 | 23 | 0.0 | 0.0 | 0.00 | 0.03 | 0.00 | 74 | 1012.3 |
| 20260503040038 | 11 | 23 | 0.0 | 0.0 | 0.00 | 0.03 | 0.00 | 74 | 1012.3 |
| 20260503035538 | 11 | 23 | 0.0 | 0.0 | 0.00 | 0.03 | 0.03 | 74 | 1012.2 |
| 20260503034038 | 11 | 23 | 0.0 | 0.0 | 0.00 | 0.03 | 0.03 | 74 | 1012.2 |
| 20260503033538 | 11 | 23 | 0.0 | 0.0 | 0.00 | 0.03 | 0.03 | 73 | 1012.2 |
| 20260503033038 | 11 | 23 | 0.0 | 0.0 | 0.00 | 0.03 | 0.03 | 73 | 1012.2 |
| 20260503032038 | 11 | 23 | 0.0 | 0.0 | 0.00 | 0.03 | 0.03 | 73 | 1012.0 |
| 20260503031538 | 11 | 23 | 0.0 | 0.0 | 0.00 | 0.03 | 0.03 | 73 | 1012.0 |
| 20260503030538 | 11 | 23 | 0.0 | 0.0 | 0.00 | 0.03 | 0.03 | 72 | 1012.2 |
| 20260503030037 | 11 | 23 | 0.0 | 0.0 | 0.00 | 0.03 | 0.03 | 71 | 1012.2 |
| 20260503025538 | 11 | 23 | 0.0 | 0.0 | 0.00 | 0.03 | 0.03 | 71 | 1012.2 |
| 20260503025038 | 11 | 23 | 0.0 | 0.0 | 0.00 | 0.03 | 0.03 | 71 | 1012.2 |
| 20260503024538 | 11 | 25 | 0.0 | 0.0 | 0.00 | 0.03 | 0.03 | 72 | 1012.2 |
| 20260503024038 | 11 | 25 | 0.0 | 0.0 | 0.00 | 0.03 | 0.03 | 72 | 1012.2 |
| 20260503023538 | 11 | 25 | 0.0 | 0.0 | 0.00 | 0.03 | 0.03 | 73 | 1012.2 |
| 20260503023037 | 11 | 25 | 0.0 | 0.0 | 0.00 | 0.03 | 0.03 | 72 | 1012.2 |
| 20260503022538 | 11 | 25 | 0.0 | 0.0 | 0.00 | 0.03 | 0.03 | 70 | 1012.1 |
| 20260503022037 | 12 | 25 | 0.0 | 0.0 | 0.00 | 0.03 | 0.03 | 70 | 1012.1 |
| 20260503021538 | 12 | 25 | 0.0 | 0.0 | 0.00 | 0.03 | 0.03 | 69 | 1012.1 |
| 20260503021037 | 12 | 25 | 0.0 | 0.0 | 0.00 | 0.03 | 0.03 | 70 | 1011.9 |
| 20260503020537 | 12 | 25 | 0.0 | 0.0 | 0.00 | 0.03 | 0.03 | 70 | 1011.9 |
| 20260503020037 | 12 | 25 | 0.0 | 0.0 | 0.00 | 0.03 | 0.03 | 69 | 1011.9 |
| 20260503015537 | 12 | 25 | 0.0 | 0.0 | 0.00 | 0.03 | 0.03 | 68 | 1012.0 |
| 20260503015037 | 12 | 25 | 0.0 | 0.0 | 0.00 | 0.03 | 0.03 | 69 | 1012.0 |
| 20260503014537 | 12 | 25 | 0.0 | 0.0 | 0.00 | 0.03 | 0.03 | 69 | 1012.0 |
| 20260503014037 | 12 | 25 | 0.0 | 0.0 | 0.00 | 0.03 | 0.03 | 68 | 1012.2 |
| 20260503013537 | 12 | 25 | 0.0 | 0.0 | 0.00 | 0.03 | 0.03 | 67 | 1012.2 |
| 20260503013038 | 12 | 25 | 0.0 | 0.0 | 0.00 | 0.03 | 0.03 | 66 | 1012.2 |
| 20260503012537 | 12 | 25 | 0.0 | 0.0 | 0.00 | 0.03 | 0.03 | 66 | 1011.7 |
| 20260503012037 | 12 | 25 | 0.0 | 0.0 | 0.00 | 0.03 | 0.03 | 66 | 1011.7 |
| 20260503011537 | 12 | 25 | 0.0 | 0.0 | 0.00 | 0.03 | 0.03 | 66 | 1011.7 |
| 20260503011037 | 12 | 25 | 0.0 | 0.0 | 0.00 | 0.03 | 0.03 | 66 | 1011.7 |
| 20260503010537 | 12 | 25 | 0.0 | 0.0 | 0.00 | 0.03 | 0.03 | 65 | 1011.7 |
| 20260503010037 | 12 | 25 | 0.0 | 0.0 | 0.00 | 0.03 | 0.03 | 65 | 1011.7 |
| 20260503005537 | 12 | 25 | 0.0 | 0.0 | 0.00 | 0.03 | 0.03 | 65 | 1011.7 |
| 20260503005037 | 13 | 25 | 0.0 | 0.0 | 0.00 | 0.03 | 0.03 | 64 | 1011.7 |
| 20260503004037 | 13 | 25 | 0.0 | 0.0 | 0.00 | 0.03 | 0.03 | 62 | 1011.4 |
| 20260503003037 | 13 | 25 | 0.0 | 0.0 | 0.00 | 0.03 | 0.03 | 61 | 1011.4 |
| 20260503002537 | 13 | 25 | 0.0 | 0.0 | 0.00 | 0.03 | 0.03 | 60 | 1011.2 |
| 20260503002037 | 13 | 25 | 0.0 | 0.0 | 0.00 | 0.03 | 0.03 | 60 | 1011.2 |
| 20260503001537 | 13 | 25 | 0.0 | 0.0 | 0.00 | 0.03 | 0.03 | 59 | 1011.2 |
| 20260503000536 | 13 | 25 | 0.0 | 9.7 | 0.00 | 0.03 | 0.03 | 58 | 1011.2 |
| 20260503000037 | 13 | 25 | 4.8 | 9.7 | 0.00 | 0.03 | 0.03 | 57 | 1011.2 |